FW2323 Weather Reports


time (UTC)temp
C
wind
direction
speed
KPH
gust
KPH
rain 1hr
cm
rain 24hr
cm
rain mn
cm
humidity
%
barometer
mb
20260505000302 13 226 0.0 0.0 0.00 0.00 0.00 62 1016.6
20260504235304 13 226 0.0 0.0 0.00 0.00 0.00 63 1016.5
20260504234801 13 226 0.0 0.0 0.00 0.00 0.00 62 1016.5
20260504234302 13 226 0.0 0.0 0.00 0.00 0.00 62 1016.7
20260504233802 13 226 0.0 0.0 0.00 0.00 0.00 62 1016.7
20260504233303 13 230 0.0 0.0 0.00 0.00 0.00 62 1016.7
20260504232802 13 230 0.0 0.0 0.00 0.00 0.00 61 1016.8
20260504232303 13 230 0.0 0.0 0.00 0.00 0.00 61 1016.8
20260504231802 14 230 0.0 0.0 0.00 0.00 0.00 61 1016.8
20260504231301 14 230 0.0 0.0 0.00 0.00 0.00 60 1016.9
20260504230303 14 228 0.0 0.0 0.00 0.00 0.00 60 1016.9
20260504225802 14 228 0.0 0.0 0.00 0.00 0.00 59 1017.1
20260504225304 14 229 0.0 0.0 0.00 0.00 0.00 59 1017.1
20260504224802 14 230 0.0 0.0 0.00 0.00 0.00 59 1017.1
20260504224301 14 230 0.0 0.0 0.00 0.00 0.00 58 1017.1
20260504223802 14 230 0.0 0.0 0.00 0.00 0.00 57 1017.1
20260504223302 14 230 0.0 0.0 0.00 0.00 0.00 57 1017.1
20260504222801 14 234 0.0 0.0 0.00 0.00 0.00 57 1017.2
20260504222304 14 233 0.0 0.0 0.00 0.00 0.00 56 1017.2
20260504221801 15 230 0.0 0.0 0.00 0.00 0.00 56 1017.2
20260504221302 15 231 0.0 0.0 0.00 0.00 0.00 56 1017.3
20260504220802 15 235 0.0 0.0 0.00 0.00 0.00 55 1017.3
20260504220302 15 227 0.0 0.0 0.00 0.00 0.00 55 1017.3
20260504215802 15 231 0.0 0.0 0.00 0.00 0.00 55 1017.3
20260504214801 15 231 0.0 0.0 0.00 0.00 0.00 55 1017.3
20260504214303 15 231 0.0 0.0 0.00 0.00 0.00 55 1017.5
20260504213801 15 231 0.0 0.0 0.00 0.00 0.00 55 1017.5
20260504213302 15 232 0.0 0.0 0.00 0.00 0.00 55 1017.5
20260504212802 15 232 0.0 0.0 0.00 0.00 0.00 55 1017.5
20260504212303 15 232 0.0 0.0 0.00 0.00 0.00 55 1017.5
20260504211802 15 234 0.0 0.0 0.00 0.00 0.00 55 1017.5
20260504211302 15 225 0.0 0.0 0.00 0.00 0.00 55 1017.6
20260504210802 15 224 0.0 0.0 0.00 0.00 0.00 56 1017.6
20260504210302 15 224 0.0 0.0 0.00 0.00 0.00 55 1017.6
20260504205803 15 224 0.0 0.0 0.00 0.00 0.00 55 1017.5
20260504204802 16 224 0.0 0.0 0.00 0.00 0.00 55 1017.5
20260504204301 16 223 0.0 0.0 0.00 0.00 0.00 54 1017.5
20260504203802 16 223 0.0 0.0 0.00 0.00 0.00 54 1017.5
20260504203302 16 223 0.0 0.0 0.00 0.00 0.00 53 1017.5
20260504202802 16 223 0.0 0.0 0.00 0.00 0.00 52 1017.3
20260504202304 17 223 0.0 0.0 0.00 0.00 0.00 51 1017.3
20260504201802 17 230 0.0 0.0 0.00 0.00 0.00 50 1017.3
20260504201302 17 253 0.0 0.0 0.00 0.00 0.00 49 1017.3
20260504200302 17 270 1.6 0.0 0.00 0.00 0.00 48 1017.3
20260504194802 18 208 0.0 11.3 0.00 0.00 0.00 48 1017.1
20260504193802 18 210 0.0 0.0 0.00 0.00 0.00 47 1017.0
20260504193303 18 200 0.0 0.0 0.00 0.00 0.00 47 1017.0
20260504192802 18 202 0.0 8.0 0.00 0.00 0.00 46 1017.0
20260504192304 18 201 3.2 0.0 0.00 0.00 0.00 46 1017.0
20260504191801 18 206 3.2 9.7 0.00 0.00 0.00 45 1017.0
20260504191302 18 200 3.2 8.0 0.00 0.00 0.00 45 1016.8
20260504190803 18 200 3.2 11.3 0.00 0.00 0.00 45 1016.8
20260504190307 18 207 3.2 11.3 0.00 0.00 0.00 46 1016.8
20260504185802 18 195 3.2 9.7 0.00 0.00 0.00 45 1016.7
20260504185304 19 213 3.2 1.6 0.00 0.00 0.00 45 1016.7
20260504184802 19 216 3.2 11.3 0.00 0.00 0.00 45 1016.7
20260504184304 19 209 1.6 11.3 0.00 0.00 0.00 44 1016.7
20260504183802 19 198 1.6 11.3 0.00 0.00 0.00 44 1016.7
20260504183302 20 193 3.2 9.7 0.00 0.00 0.00 44 1016.7
20260504182802 20 212 3.2 16.1 0.00 0.00 0.00 43 1016.5
20260504181802 20 157 3.2 14.5 0.00 0.00 0.00 43 1016.5
20260504181302 20 203 3.2 12.9 0.00 0.00 0.00 44 1016.4
20260504180802 20 221 3.2 0.0 0.00 0.00 0.00 43 1016.4
20260504180301 20 221 3.2 0.0 0.00 0.00 0.00 43 1016.4
20260504175803 20 221 3.2 0.0 0.00 0.00 0.00 43 1016.3
20260504175304 20 216 3.2 8.0 0.00 0.00 0.00 43 1016.3
20260504174804 20 206 3.2 12.9 0.00 0.00 0.00 44 1016.3
20260504174302 20 211 1.6 14.5 0.00 0.00 0.00 44 1016.2
20260504173302 20 216 0.0 8.0 0.00 0.00 0.00 43 1016.2
20260504172802 21 193 0.0 11.3 0.00 0.00 0.00 43 1016.1
20260504172304 21 211 1.6 0.0 0.00 0.00 0.00 42 1016.1
20260504171805 21 199 1.6 0.0 0.00 0.00 0.00 42 1016.1
20260504171305 21 203 3.2 8.0 0.00 0.00 0.00 41 1016.4
20260504170805 21 199 3.2 11.3 0.00 0.00 0.00 40 1016.4
20260504170302 22 208 3.2 22.5 0.00 0.00 0.00 40 1016.4
20260504150805 25 169 1.6 12.9 0.00 0.00 0.00 33 1016.0
20260504150304 25 159 1.6 4.8 0.00 0.00 0.00 32 1016.0
20260504140808 25 222 1.6 16.1 0.00 0.00 0.00 30 1016.3
20260504130805 24 84 3.2 19.3 0.00 0.00 0.00 32 1016.9
20260504130305 24 118 3.2 11.3 0.00 0.00 0.00 33 1016.9
20260504120306 24 189 3.2 16.1 0.00 0.00 0.00 34 1017.2
20260504110303 24 110 4.8 14.5 0.00 0.00 0.00 36 1017.5
20260504100303 22 89 3.2 19.3 0.00 0.00 0.00 40 1018.2
20260504081802 18 68 0.0 0.0 0.00 0.00 0.00 48 1019.0
20260504081303 18 105 0.0 0.0 0.00 0.00 0.00 49 1019.2
20260504080803 17 27 0.0 0.0 0.00 0.00 0.00 51 1019.2
20260504070302 17 38 0.0 0.0 0.00 0.00 0.00 52 1019.1
20260504050304 14 265 0.0 0.0 0.00 0.00 0.00 62 1018.9
20260504045802 13 261 0.0 0.0 0.00 0.00 0.00 64 1018.7
20260504045304 13 251 0.0 0.0 0.00 0.00 0.00 65 1018.7
20260504044804 12 239 0.0 0.0 0.00 0.00 0.00 67 1018.7
20260504044303 12 239 0.0 3.2 0.00 0.00 0.00 66 1018.5
20260504043803 12 239 0.0 0.0 0.00 0.00 0.00 65 1018.5
20260504043303 12 239 0.0 0.0 0.00 0.00 0.00 65 1018.5
20260504042803 12 239 0.0 0.0 0.00 0.00 0.00 65 1018.4
20260504042304 13 239 0.0 0.0 0.00 0.00 0.00 64 1018.4
20260504041802 12 255 0.0 0.0 0.00 0.00 0.00 63 1018.4
20260504041303 12 247 0.0 0.0 0.00 0.00 0.00 63 1018.4
20260504040803 12 256 0.0 0.0 0.00 0.00 0.00 63 1018.4
20260504040309 12 257 0.0 0.0 0.00 0.00 0.00 62 1018.4
20260504035802 12 257 0.0 0.0 0.00 0.00 0.00 62 1018.4
20260504035304 12 257 0.0 0.0 0.00 0.00 0.00 62 1018.4
20260504034803 12 257 0.0 0.0 0.00 0.00 0.00 61 1018.4
20260504033803 12 239 0.0 0.0 0.00 0.00 0.00 61 1018.4
20260504033303 13 239 0.0 0.0 0.00 0.00 0.00 61 1018.4
20260504032802 13 237 0.0 0.0 0.00 0.00 0.00 61 1018.4
20260504032304 13 237 0.0 0.0 0.00 0.00 0.00 61 1018.4
20260504031803 13 238 0.0 0.0 0.00 0.00 0.00 61 1018.4
20260504030803 13 238 0.0 0.0 0.00 0.00 0.00 60 1018.3
20260504030304 13 242 0.0 0.0 0.00 0.00 0.00 60 1018.3
20260504025802 13 244 0.0 0.0 0.00 0.00 0.00 60 1018.4
20260504025304 13 244 0.0 0.0 0.00 0.00 0.00 59 1018.4
20260504024803 13 244 0.0 0.0 0.00 0.00 0.00 59 1018.4
20260504024304 13 244 0.0 0.0 0.00 0.00 0.00 59 1018.5
20260504023802 13 244 0.0 0.0 0.00 0.00 0.00 59 1018.5
20260504023303 13 244 0.0 0.0 0.00 0.00 0.00 59 1018.5
20260504022803 13 244 0.0 0.0 0.00 0.00 0.00 59 1018.5
20260504022304 13 244 0.0 0.0 0.00 0.00 0.00 58 1018.5
20260504020303 13 259 0.0 0.0 0.00 0.00 0.00 60 1018.5
20260504015803 13 259 0.0 0.0 0.00 0.00 0.00 59 1018.4
20260504015304 14 261 0.0 0.0 0.00 0.00 0.00 57 1018.4
20260504014303 14 261 0.0 0.0 0.00 0.00 0.00 56 1018.4
20260504013304 15 261 0.0 0.0 0.00 0.00 0.00 55 1018.4
20260504012803 15 261 0.0 0.0 0.00 0.00 0.00 54 1018.3
20260504011803 15 253 0.0 0.0 0.00 0.00 0.00 52 1018.3
20260504011303 15 263 0.0 0.0 0.00 0.00 0.00 53 1018.2
20260504010803 15 228 0.0 0.0 0.00 0.00 0.00 54 1018.2
20260504010305 15 228 0.0 0.0 0.00 0.00 0.00 54 1018.2
20260504005804 15 228 0.0 0.0 0.00 0.00 0.00 54 1018.3
20260504005304 15 231 0.0 0.0 0.00 0.00 0.00 55 1018.3
20260504004803 15 231 0.0 0.0 0.00 0.00 0.00 54 1018.3
20260504004303 15 231 0.0 0.0 0.00 0.00 0.00 54 1018.4
20260504003803 15 231 0.0 0.0 0.00 0.00 0.00 53 1018.4
20260504003304 15 233 0.0 0.0 0.00 0.00 0.00 53 1018.4
20260504002802 15 233 0.0 0.0 0.00 0.00 0.00 53 1018.5
20260504002304 15 233 0.0 0.0 0.00 0.00 0.00 53 1018.5
20260504001803 15 233 0.0 0.0 0.00 0.00 0.00 53 1018.5
20260504001302 15 233 0.0 0.0 0.00 0.00 0.00 53 1018.6
20260504000803 15 233 0.0 0.0 0.00 0.00 0.00 52 1018.6